Aérodrome :
LOGIN :

S'inscrire | Disclaimer

   EN    FR    IT 

 










Légende :    VFR   VFR Marginal   IFR   IFR Intensif   IFR Très Intensif
Visi : 
Plafond : 
>= 8 km
>= 3000ft
5 à 8 km
1000 à 3000 ft
1500m à 5 km
500 à 1000 ft
800 à 1500m
200 à 500 ft
< 800m
< 200 ft
Symboles :   Orages  Brouillard  Fortes neiges  Fortes précipitations  Vent > 20 kt
SIGMETs :   Divers  Orages  Givrage  Turbulence  Onde Orograph.  Cendres Volcan.







- Altitude de l'aérodrome : 751 ft
- Code IATA : ENC
- Voir les cartes d'approche


LFSN - Nancy Essey

DERNIER METAR :
  • 230430Z AUTO 18005KT 140V210 5000 BR SCT006 OVC014 M01/M02 Q0996

METARs EXPIRÉS :
  • 230400Z AUTO 17004KT 140V210 6000 OVC006 M01/M02 Q0996
  • 230330Z AUTO 17004KT 140V200 5000 BR OVC006 M01/M02 Q0997
  • 230300Z AUTO 17003KT 140V210 6000 OVC007 M01/M02 Q0997
  • 230230Z AUTO 15004KT 6000 OVC008 M01/M02 Q0998
  • 230200Z AUTO 14005KT 7000 OVC008 M01/M03 Q0998

Prévision TAF périmée.
Pas de NOTAMs connus pour ce terrain.



MET'MAP, la Météo Aéronautique d'un coup d'oeil ! - Copyright ORBIFLY Décembre 2007 - Disclaimer

ORBIFLY MET'MAP TEAM :

Programmation & Développement : Alexandra Zaïnal
Conception & Développement : Baudouin d'Aumeries
Co-Programmation & Développement : Marc-Olivier Méhu
Soutien technique & logistique : Manuel Goepfert

Contact : metmap@orbifly.com




SOURCES & CREDITS :

   NOAA